DW6386 Weather Reports


Display with metric or nautical units.
time (UTC)temp
F
wind
direction
speed
MPH
gust
MPH
rain 1hr
in
rain 24hr
in
rain mn
in
humidity
%
barometer
mb
20260510211503 80 69 0.0 0.0 0.00 0.00 0.00 53 1014.0
20260510210003 81 58 0.0 0.0 0.00 0.00 0.00 48 1013.9
20260510204502 81 72 0.0 3.0 0.00 0.00 0.00 46 1013.9
20260510203001 81 63 0.0 4.0 0.00 0.00 0.00 48 1014.1
20260510201501 83 53 1.0 4.0 0.00 0.00 0.00 44 1014.1
20260510200059 83 39 0.0 4.0 0.00 0.00 0.00 43 1014.2
20260510194603 82 63 1.0 6.0 0.00 0.00 0.00 46 1014.3
20260510193059 81 57 1.0 7.0 0.00 0.00 0.00 48 1014.5
20260510191557 82 63 1.0 5.0 0.00 0.00 0.00 46 1014.6
20260510190105 82 51 2.0 5.0 0.00 0.00 0.00 46 1014.7
20260510184556 82 352 1.0 5.0 0.00 0.00 0.00 48 1014.9
20260510183054 81 38 3.0 7.0 0.00 0.00 0.00 47 1015.0
20260510181551 81 46 3.0 7.0 0.00 0.00 0.00 48 1014.9
20260510180103 81 313 1.0 5.0 0.00 0.00 0.00 54 1014.9
20260510174549 80 40 2.0 6.0 0.00 0.00 0.00 49 1015.1
20260510173050 80 280 0.0 4.0 0.00 0.00 0.00 58 1015.3
20260510171549 79 37 2.0 5.0 0.00 0.00 0.00 56 1015.5
20260510170042 78 300 0.0 4.0 0.00 0.00 0.00 60 1015.5
20260510164548 77 304 1.0 5.0 0.00 0.00 0.00 64 1015.5
20260510163053 76 284 0.0 4.0 0.00 0.00 0.00 70 1015.7
20260510161536 76 31 0.0 3.0 0.00 0.00 0.00 71 1015.9
20260510160031 75 164 0.0 3.0 0.00 0.00 0.00 70 1016.1
20260510154531 74 82 0.0 3.0 0.00 0.00 0.00 72 1016.0
20260510153027 73 156 0.0 0.0 0.00 0.00 0.00 72 1016.1
20260510151525 72 53 0.0 1.0 0.00 0.00 0.00 75 1016.2
20260510150034 72 48 0.0 5.0 0.00 0.00 0.00 73 1016.2
20260510144520 71 60 0.0 1.0 0.00 0.00 0.00 75 1016.2
20260510143029 70 56 0.0 3.0 0.00 0.00 0.00 77 1016.1
20260510141513 69 28 0.0 4.0 0.00 0.00 0.00 78 1016.1
20260510140011 68 250 0.0 1.0 0.00 0.00 0.00 80 1016.1
20260510134539 66 165 0.0 1.0 0.00 0.00 0.00 85 1016.1
20260510133002 64 224 0.0 0.0 0.00 0.00 0.00 89 1016.1
20260510131605 64 209 0.0 0.0 0.00 0.00 0.00 94 1016.2
20260510130056 62 205 0.0 0.0 0.00 0.00 0.00 96 1016.2
20260510124559 60 204 0.0 0.0 0.00 0.00 0.00 97 1016.2
20260510123051 59 205 0.0 0.0 0.00 0.00 0.00 98 1016.1
20260510121546 56 122 0.0 0.0 0.00 0.00 0.00 99 1016.1
20260510120044 53 122 0.0 0.0 0.00 0.00 0.00 98 1015.8
20260510114546 51 122 0.0 0.0 0.00 0.00 0.00 98 1015.5
20260510113040 50 121 0.0 0.0 0.00 0.00 0.00 98 1015.3
20260510111538 49 121 0.0 0.0 0.00 0.00 0.00 97 1015.1
20260510110036 49 121 0.0 0.0 0.00 0.00 0.00 97 1014.7
20260510104534 49 121 0.0 0.0 0.00 0.00 0.00 97 1014.6
20260510103032 49 121 0.0 0.0 0.00 0.00 0.00 97 1014.5
20260510101531 50 121 0.0 0.0 0.00 0.00 0.00 98 1014.5
20260510100041 49 121 0.0 0.0 0.00 0.00 0.00 97 1014.2
20260510094535 49 121 0.0 0.0 0.00 0.00 0.00 96 1014.1
20260510093024 50 121 0.0 0.0 0.00 0.00 0.00 98 1013.9
20260510091521 50 121 0.0 0.0 0.00 0.00 0.00 97 1013.6
20260510090022 50 121 0.0 0.0 0.00 0.00 0.00 97 1013.5
20260510084517 51 121 0.0 0.0 0.00 0.00 0.00 97 1013.3
20260510083020 51 121 0.0 0.0 0.00 0.00 0.00 97 1013.1
20260510081512 51 121 0.0 0.0 0.00 0.00 0.00 97 1013.0
20260510080023 51 121 0.0 0.0 0.00 0.00 0.00 96 1012.7
20260510074511 51 121 0.0 0.0 0.00 0.00 0.00 96 1012.6
20260510073007 51 121 0.0 0.0 0.00 0.00 0.00 96 1012.5
20260510071503 51 121 0.0 0.0 0.00 0.00 0.00 96 1012.4
20260510070002 51 121 0.0 0.0 0.00 0.00 0.00 95 1012.6
20260510064601 51 121 0.0 0.0 0.00 0.00 0.00 96 1012.5
20260510063058 52 121 0.0 0.0 0.00 0.00 0.00 94 1012.5
20260510061556 53 121 0.0 0.0 0.00 0.00 0.00 95 1012.5
20260510060053 53 121 0.0 0.0 0.00 0.00 0.00 95 1012.6
20260510054550 54 121 0.0 0.0 0.00 0.00 0.00 96 1012.7
20260510053048 54 121 0.0 0.0 0.00 0.00 0.00 94 1012.7
20260510051548 54 121 0.0 0.0 0.00 0.00 0.00 94 1012.7
20260510050049 54 121 0.0 0.0 0.00 0.00 0.00 93 1012.7
20260510044543 55 121 0.0 0.0 0.00 0.00 0.00 92 1012.7
20260510043042 56 121 0.0 0.0 0.00 0.00 0.00 92 1012.6
20260510041536 56 120 0.0 0.0 0.00 0.00 0.00 91 1012.6
20260510040034 56 120 0.0 0.0 0.00 0.00 0.00 89 1012.6
20260510034541 58 120 0.0 0.0 0.00 0.00 0.00 89 1012.5
20260510033031 58 120 0.0 0.0 0.00 0.00 0.00 88 1012.5
20260510031531 58 120 0.0 0.0 0.00 0.00 0.00 86 1012.4
20260510030029 59 120 0.0 0.0 0.00 0.00 0.00 87 1012.3
20260510024529 59 120 0.0 0.0 0.00 0.00 0.00 86 1012.1
20260510023027 60 120 0.0 0.0 0.00 0.00 0.00 84 1012.1
20260510021526 60 121 0.0 0.0 0.00 0.00 0.00 83 1012.0
20260510020025 61 120 0.0 0.0 0.00 0.00 0.00 81 1011.7
20260510014526 62 120 0.0 0.0 0.00 0.00 0.00 78 1011.4
20260510013025 63 121 0.0 0.0 0.00 0.00 0.00 75 1011.1
20260510011536 64 121 0.0 0.0 0.00 0.00 0.00 73 1010.8
20260510010022 65 121 0.0 0.0 0.00 0.00 0.00 72 1010.6
20260510004523 66 120 0.0 0.0 0.00 0.00 0.00 70 1010.4
20260510003024 67 121 0.0 0.0 0.00 0.00 0.00 67 1010.4
20260510001523 68 121 0.0 0.0 0.00 0.00 0.00 66 1010.1
20260510000034 69 121 0.0 0.0 0.00 0.00 0.00 64 1009.9
20260509234522 70 120 0.0 0.0 0.00 0.00 0.00 62 1009.8
20260509233019 71 120 0.0 0.0 0.00 0.00 0.00 62 1009.6
20260509231518 72 120 0.0 0.0 0.00 0.00 0.00 60 1009.3
20260509230019 72 120 0.0 0.0 0.00 0.00 0.00 58 1009.3
20260509224518 73 120 0.0 0.0 0.00 0.00 0.00 57 1009.3
20260509223017 74 138 0.0 0.0 0.00 0.00 0.00 56 1009.2
20260509221515 75 129 0.0 2.0 0.00 0.00 0.00 53 1009.1
20260509220014 76 60 3.0 7.0 0.00 0.00 0.00 50 1009.3
20260509214520 76 76 0.0 2.0 0.00 0.00 0.00 53 1009.2
20260509213013 76 70 0.0 11.0 0.00 0.00 0.00 50 1009.2